St. James, MN

2:26 AM CDT on March 26, 2017 (GMT -0500)
Saint James Municipal

Weather History for KJYG - January, 2012

Change the Weather History Date:

Tuesday, January 24, 2012

  Actual Average Record
Temperature  
Mean Temperature 24 °F -  
Max Temperature 24 °F 27 °F 64 °F (1981)
Min Temperature 23 °F 7 °F -20 °F (1961)
Degree Days  
Heating Degree Days 42    
Moisture  
Dew Point 20 °F    
Average Humidity 84    
Maximum Humidity 86    
Minimum Humidity 80    
Precipitation  
Precipitation 0.00 in - - ()
Sea Level Pressure  
Sea Level Pressure 30.18 in    
Wind  
Wind Speed 7 mph (SW)    
Max Wind Speed 13 mph    
Max Gust Speed -    
Visibility 9 miles    
Events      
Averages and records for this station are not official NWS values.
T = Trace of Precipitation, MM = Missing Value Source: NWS Daily Summary

Daily Weather History Graph

Daily Weather History Graph

Search for Another Location

Airport or City:

Trip Planner

Search our weather history database for the weather conditions in past years. The results will help you decide how hot, cold, wet, or windy it might be!

Date:

Astronomy

Jan. 24, 2012 Rise Set
Actual Time 7:43 AM CST 5:17 PM CST
Civil Twilight 7:12 AM CST 5:48 PM CST
Nautical Twilight 6:37 AM CST 6:23 PM CST
Astronomical Twilight 6:03 AM CST 6:57 PM CST
Moon 8:08 AM CST (1/24) 7:15 PM CST (1/24)
Length of Visible Light 10h 35m
Length of Day
9h 33m
New Moon, 2% of the Moon is Illuminated
Jan 24
New Moon
Jan 30
First Quarter
Feb 7
Full
Feb 14
Last Quarter
Feb 21
New

Hourly Weather History & Observations

Time (CST) Temp. Windchill Dew Point Humidity Pressure Visibility Wind Dir Wind Speed Gust Speed Precip Events Conditions
12:15 AM 23.0 °F 11.7 °F 17.6 °F 80% 29.99 in 10.0 mi West 11.5 mph - N/A   Overcast
12:35 AM 23.0 °F 12.4 °F 17.6 °F 80% 30.00 in 10.0 mi West 10.4 mph - N/A   Overcast
12:55 AM 23.0 °F 11.7 °F 17.6 °F 80% 30.00 in 10.0 mi West 11.5 mph - N/A   Overcast
1:12 AM 23.0 °F 11.1 °F 17.6 °F 80% 30.00 in 10.0 mi West 12.7 mph - N/A   Overcast
1:35 AM 23.0 °F 11.7 °F 17.6 °F 80% 30.01 in 10.0 mi West 11.5 mph - N/A   Overcast
1:55 AM 23.0 °F 11.7 °F 17.6 °F 80% 30.02 in 10.0 mi West 11.5 mph - N/A   Overcast
2:35 AM 23.0 °F 13.1 °F 17.6 °F 80% 30.04 in 10.0 mi West 9.2 mph - N/A   Overcast
2:55 AM 23.0 °F 13.9 °F 17.6 °F 80% 30.05 in 10.0 mi West 8.1 mph - N/A   Overcast
3:15 AM 23.0 °F 14.7 °F 17.6 °F 80% 30.06 in 10.0 mi West 6.9 mph - N/A   Overcast
3:35 AM 23.0 °F 14.7 °F 17.6 °F 80% 30.06 in 10.0 mi West 6.9 mph - N/A   Overcast
4:15 AM 23.0 °F 13.1 °F 17.6 °F 80% 30.09 in 10.0 mi West 9.2 mph - N/A   Overcast
4:34 AM 23.0 °F 13.9 °F 19.4 °F 86% 30.10 in 10.0 mi West 8.1 mph - N/A   Overcast
4:55 AM 23.0 °F 13.9 °F 19.4 °F 86% 30.11 in 10.0 mi West 8.1 mph - N/A   Overcast
5:15 AM 23.0 °F 14.7 °F 19.4 °F 86% 30.12 in 10.0 mi West 6.9 mph - N/A   Overcast
5:34 AM 23.0 °F 14.7 °F 19.4 °F 86% 30.13 in 10.0 mi West 6.9 mph - N/A   Overcast
5:55 AM 23.0 °F 17.0 °F 19.4 °F 86% 30.14 in 10.0 mi West 4.6 mph - N/A   Overcast
6:15 AM 23.0 °F - 19.4 °F 86% 30.14 in 10.0 mi Calm Calm - N/A   Overcast
6:35 AM 23.0 °F - 19.4 °F 86% 30.15 in 10.0 mi Calm Calm - N/A   Overcast
6:55 AM 23.0 °F - 19.4 °F 86% 30.15 in 10.0 mi Calm Calm - N/A   Overcast
7:15 AM 23.0 °F 17.0 °F 19.4 °F 86% 30.16 in 10.0 mi West 4.6 mph - N/A   Overcast
7:35 AM 23.0 °F 17.0 °F 19.4 °F 86% 30.16 in 10.0 mi West 4.6 mph - N/A   Overcast
8:15 AM 23.0 °F 15.8 °F 19.4 °F 86% 30.17 in 10.0 mi West 5.8 mph - N/A   Overcast
8:34 AM 23.0 °F 13.9 °F 19.4 °F 86% 30.18 in 10.0 mi West 8.1 mph - N/A   Overcast
9:14 AM 23.0 °F 18.4 °F 19.4 °F 86% 30.20 in 10.0 mi WSW 3.5 mph - N/A   Overcast
9:35 AM 23.0 °F 18.4 °F 17.6 °F 80% 30.21 in 10.0 mi West 3.5 mph - N/A   Overcast
9:55 AM 23.0 °F 15.8 °F 19.4 °F 86% 30.22 in 10.0 mi SW 5.8 mph - N/A   Overcast
10:15 AM 23.0 °F 15.8 °F 19.4 °F 86% 30.23 in 10.0 mi WSW 5.8 mph - N/A   Overcast
10:35 AM 23.0 °F 18.4 °F 19.4 °F 86% 30.23 in 10.0 mi SSW 3.5 mph - N/A   Overcast
10:55 AM 24.8 °F - 19.4 °F 80% 30.23 in 10.0 mi Calm Calm - N/A   Overcast
11:15 AM 24.8 °F - 19.4 °F 80% 30.22 in 10.0 mi Calm Calm - N/A   Overcast
11:35 AM 24.8 °F - 19.4 °F 80% 30.22 in 10.0 mi Calm Calm - N/A   Overcast
11:55 AM 24.8 °F - 19.4 °F 80% 30.22 in 10.0 mi Calm Calm - N/A   Overcast
12:34 PM 24.8 °F 20.5 °F 19.4 °F 80% 30.21 in 10.0 mi SE 3.5 mph - N/A   Overcast
1:15 PM 24.8 °F 20.5 °F 19.4 °F 80% 30.24 in 10.0 mi South 3.5 mph - N/A   Overcast
1:35 PM 24.8 °F 16.9 °F 21.2 °F 86% 30.24 in 10.0 mi South 6.9 mph - N/A   Overcast
1:55 PM 24.8 °F 19.1 °F 19.4 °F 80% 30.24 in 7.0 mi SSW 4.6 mph - N/A   Overcast
2:15 PM 24.8 °F - 19.4 °F 80% 30.23 in 7.0 mi Calm Calm - N/A   Overcast
2:35 PM 24.8 °F 17.9 °F 21.2 °F 86% 30.24 in 7.0 mi SSW 5.8 mph - N/A   Overcast
2:54 PM 24.8 °F 20.5 °F 21.2 °F 86% 30.26 in 7.0 mi South 3.5 mph - N/A   Overcast
3:15 PM 24.8 °F 19.1 °F 21.2 °F 86% 30.26 in 7.0 mi South 4.6 mph - N/A   Overcast
3:35 PM 24.8 °F - 21.2 °F 86% 30.26 in 7.0 mi Calm Calm - N/A   Overcast
3:54 PM 24.8 °F 16.9 °F 21.2 °F 86% 30.26 in 7.0 mi South 6.9 mph - N/A   Overcast
4:15 PM 24.8 °F 16.1 °F 21.2 °F 86% 30.25 in 7.0 mi SE 8.1 mph - N/A   Overcast
4:55 PM 24.8 °F 19.1 °F 21.2 °F 86% 30.26 in 7.0 mi South 4.6 mph - N/A   Overcast
5:15 PM 24.8 °F 16.9 °F 21.2 °F 86% 30.26 in 7.0 mi SSE 6.9 mph - N/A   Overcast
5:35 PM 24.8 °F 16.9 °F 21.2 °F 86% 30.26 in 7.0 mi SSE 6.9 mph - N/A   Mostly Cloudy
5:55 PM 24.8 °F 15.3 °F 21.2 °F 86% 30.25 in 7.0 mi SSE 9.2 mph - N/A   Mostly Cloudy
6:15 PM 24.8 °F 16.9 °F 21.2 °F 86% 30.25 in 7.0 mi SE 6.9 mph - N/A   Scattered Clouds
6:35 PM 24.8 °F 16.9 °F 21.2 °F 86% 30.26 in 7.0 mi SSE 6.9 mph - N/A   Mostly Cloudy
6:55 PM 24.8 °F 16.9 °F 21.2 °F 86% 30.26 in 7.0 mi SE 6.9 mph - N/A   Scattered Clouds
7:35 PM 24.8 °F 17.9 °F 21.2 °F 86% 30.26 in 7.0 mi SSE 5.8 mph - N/A   Clear
7:55 PM 24.8 °F 17.9 °F 21.2 °F 86% 30.25 in 7.0 mi SE 5.8 mph - N/A   Scattered Clouds
8:14 PM 24.8 °F 19.1 °F 21.2 °F 86% 30.25 in 7.0 mi SE 4.6 mph - N/A   Scattered Clouds
8:35 PM 24.8 °F 20.5 °F 21.2 °F 86% 30.24 in 7.0 mi ESE 3.5 mph - N/A   Clear
8:55 PM 24.8 °F 19.1 °F 21.2 °F 86% 30.25 in 7.0 mi South 4.6 mph - N/A   Scattered Clouds
9:15 PM 24.8 °F 20.5 °F 21.2 °F 86% 30.25 in 7.0 mi SSE 3.5 mph - N/A   Clear
9:35 PM 24.8 °F - 21.2 °F 86% 30.25 in 7.0 mi Calm Calm - N/A   Scattered Clouds
9:55 PM 24.8 °F - 21.2 °F 86% 30.24 in 7.0 mi Calm Calm - N/A   Mostly Cloudy
10:15 PM 24.8 °F - 21.2 °F 86% 30.24 in 7.0 mi Calm Calm - N/A   Overcast
10:35 PM 24.8 °F - 21.2 °F 86% 30.25 in 10.0 mi Calm Calm - N/A   Overcast
11:14 PM 26.6 °F 21.2 °F 21.2 °F 80% 30.26 in 10.0 mi SE 4.6 mph - N/A   Overcast
11:35 PM 26.6 °F - 21.2 °F 80% 30.26 in 10.0 mi Calm Calm - N/A   Overcast
11:55 PM 26.6 °F - 21.2 °F 80% 30.26 in 10.0 mi Calm Calm - N/A   Overcast